Regional Weather Roundup
Issued by NWS

Home | Current Version | Previous Version | Text Only | Print | Product List | Glossary Off
Versions: 1 2 3 4 5 6 7 8 9 10 11 12 13 14 15 16 17 18 19 20 21 22 23 24 25 26 27 28 29 30 31 32 33 34 35 36 37 38 39 40 41 42 43 44 45 46 47 48 49 50

000
ASUS45 KTFX 020019
RWRMT
MONTANA HOURLY WEATHER ROUNDUP
NATIONAL WEATHER SERVICE GREAT FALLS MT
619 PM MDT FRI AUG 1 2014

NOTE: "FAIR" INDICATES FEW OR NO CLOUDS BELOW 12000 FEET WITH NO
SIGNIFICANT WEATHER AND/OR OBSTRUCTIONS TO VISIBILITY.

* THESE STATIONS ARE NOT UNDER NWS QUALITY CONTROL. THEY DO NOT
   REPORT WEATHER SUCH AS PRECIPITATION OR FOG.

MTZ001>007-043-020100-
WEST OF THE DIVIDE
CITY           SKY/WX    TMP DP  RH WIND       PRES   REMARKS
KALISPELL      PTCLDY    91  41  17 SE5       30.02F
MISSOULA       CLOUDY    88  37  16 S16G26    30.04R
BUTTE          MOCLDY    84  32  15 SE15      30.21S
MULLAN PASS    RAIN      57  48  72 S16G24    30.28R
* ESSEX        N/A      N/A N/A N/A N/A        N/A
* LINCOLN      N/A       88  41  19 NE7G19     N/A
* LOOKOUT PASS N/A       74  44  34 S11G22     N/A
* POLSON       N/A       88  47  24 N2G7       N/A
* RONAN APT    MOCLDY    86  52  31 N7         N/A
* SEELEY LAKE  N/A       90  34  14 S4G14      N/A
* THOMP F APT  CLOUDY    73  40  30 NE4G17     N/A
$$

MTZ008-052>055-020100-
SOUTHWEST MONTANA
CITY           SKY/WX    TMP DP  RH WIND       PRES   REMARKS
BOZEMAN        MOCLDY    81  43  26 VRB6      30.14S
DILLON         CLOUDY    81  43  26 S10       30.17F
W YELLOWSTONE  CLOUDY    59  46  62 S8        30.39R
* THREE FORKS  MOCLDY    90  52  27 N14        N/A
* BOULDER HILL N/A       82  40  22 N4G11      N/A
* MONIDA PASS  N/A       73  39  29 N12        N/A
* RAYNOLDS PAS N/A       67  46  47 SE17G26    N/A
* WHITEHALL    N/A       89  37  16 SE6        N/A
* WISE RIVER   N/A       82  33  17 E4         N/A
$$

MTZ009>010-012-014-046-048-049-054-020100-
EAST SLOPES AND CENTRAL MONTANA
CITY           SKY/WX    TMP DP  RH WIND       PRES   REMARKS
CUT BANK       MOCLDY    84  54  36 N15       30.15F
GREAT FALLS    PTCLDY    91  34  13 E7        30.10F
HELENA         MOCLDY    93  37  14 N6        30.08F
MALMSTROM AFB  PTCLDY    90  39  17 NW8G16    30.10F
* CONRAD       MOCLDY    81  59  47 N/A        N/A   HI  81
* DEARBORN     N/A       90  42  19 NE8G16     N/A
* EAST GLACIER N/A       69  58  68 N6         N/A
* MONARCH      N/A       79  40  25 N8         N/A
* PENDROY      N/A       78  57  49 VRB6       N/A
* SAINT MARY   N/A       77  54  45 E4G11      N/A
* SWEET GRASS  N/A       81  54  39 NE14       N/A
* WHITE SULPH  N/A       85  35  17 NE9G16     N/A
$$

MTZ011-013-016-021-035-040-045-047-050-051-020100-
NORTH CENTRAL MONTANA
CITY           SKY/WX    TMP DP  RH WIND       PRES   REMARKS
HAVRE          MOCLDY    84  54  36 N17G25    30.10R
LEWISTOWN      PTCLDY    90  37  15 VRB6      30.16S
* FORT BENTON  PTCLDY    91  45  20 N10       30.07F
* CHESTER      N/A       86  46  25 E2         N/A
* DENTON       N/A       91  46  21 NW10       N/A
* GEYSER       N/A       88  46  23 NE9        N/A
* JUDITH GAP   N/A       85  44  24 N12G17     N/A
* LOMA         N/A       91  46  21 N8         N/A
$$

MTZ017>020-022>027-061-062-020100-
NORTHEAST MONTANA
CITY           SKY/WX    TMP DP  RH WIND       PRES   REMARKS
GLASGOW        PTCLDY    88  55  33 SE5       30.04F
GLENDIVE       CLEAR     84  54  36 NE13      30.07S
JORDAN         CLEAR     90  37  15 N14       30.07S
SIDNEY         CLEAR     86  52  31 NE8       30.06F
WOLF POINT     CLEAR     90  48  24 CALM      30.03F
* BEAVER HILL  N/A       83  57  41 NE17G22    N/A   HI  82
* CIRCLE       N/A       90  54  29 E5         N/A
* LINDSAY DVD  N/A       86  51  30 NE9G14     N/A
* NAVAJO       N/A       84  53  34 NW2        N/A
$$

MTZ028>042-056>058-020100-
SOUTHCENTRAL AND SOUTHEAST MONTANA
CITY           SKY/WX    TMP DP  RH WIND       PRES   REMARKS
BAKER          CLEAR     88  52  29 NE14      30.06S
BILLINGS       PTCLDY    91  36  14 E13       30.11S
LIVINGSTON     PTCLDY    90  39  17 SE16G24   30.15S
MILES CITY     PTCLDY    93  39  15 N12       30.03S
* LAUREL APT   PTCLDY    90  41  18 NE7        N/A
* ROUNDUP APT  CLEAR     90  39  17 N6         N/A
* ALZADA       N/A       89  41  19 NW8        N/A
* HYSHAM       N/A       91  47  22 E5G18      N/A
* LAME DEER    N/A       85  42  22 N12        N/A
* REED POINT   N/A       92  46  20 E6         N/A
* ROSCOE HILL  N/A       76  38  25 S11        N/A
$$

REGIONAL REPORTS...DAKOTAS
CITY           SKY/WX    TMP DP  RH WIND       PRES   REMARKS
WILLISTON      CLEAR     84  55  37 S8        30.06F
DICKINSON      CLEAR     81  59  47 NE18      30.06S HI  81
CROSBY         CLEAR     79  59  50 SE6       30.07F
TIOGA          CLEAR     77  55  47 S3        30.12F
WATFORD CITY   CLEAR     81  54  39 NE3       30.05F
BISMARCK       TSTM      82  59  46 NE13      30.03F HI  82
GRAND FORKS    PTCLDY    81  59  47 E5        30.05F HI  81
FARGO          PTCLDY    81  54  39 N8        30.05F
BUFFALO SD     CLEAR     88  50  27 N14       29.98F
RAPID CITY     MOCLDY    79  50  36 W12       30.06F
$$

REGIONAL REPORTS...WYOMING/IDAHO/WASHINGTON
CITY           SKY/WX    TMP DP  RH WIND       PRES   REMARKS
GILLETTE       MOCLDY    82  43  25 SW16      30.14F
SHERIDAN       MOCLDY    88  41  19 S5        30.12F
CODY           CLOUDY    70  46  42 W13G28    30.29R
YELLOWSTONE LA CLOUDY    59  45  60 VRB3      30.49S
SALMON         CLOUDY    73  46  38 SE14G31   30.18R
MULLAN PASS    RAIN      57  48  72 S16G24    30.28S
SAND POINT     MOCLDY    82  59  46 CALM      29.98F HI  82
SPOKANE        MOCLDY    95  32  11 N7        29.98F
$$

REGIONAL REPORTS...ALBERTA
CITY           SKY/WX    TMP DP  RH WIND       PRES   REMARKS
CALGARY        MOCLDY    81  52  37 E12       30.18F
LETHBRIDGE     MOCLDY    79  57  47 E10       30.15F
MEDICINE HAT   PTCLDY    84  52  33 N10       30.12F
EDMONTON       MOCLDY    72  59  64 E12       30.20F
WATERTON GATE  N/A       75  57  54 NE10       N/A
CARDSTON       N/A       75  61  62 NE8        N/A
$$

REGIONAL REPORTS...SASKATCHEWAN
CITY           SKY/WX    TMP DP  RH WIND       PRES   REMARKS
SWIFT CURRENT  PTCLDY    66  57  73 N9        30.16S
REGINA         TSTM      70  57  64 W30G41    30.10R
VAL MARIE      N/A       81  57  44 N21G26     N/A   HI  81
ASSINIBOIA     N/A       70  57  64 NW15G25    N/A
CORONACH       N/A       84  52  33 NW3        N/A

$$



USA.gov is the U.S. government's official web portal to all federal, state and local government web resources and services.